Location: Bartshausen
(51.8454°N, 9.8167°E)
Time: 00:09:24
(UTC+00:00)

Cosmos 1939 Rocket - Pass Details

Date: 08 November 2025
Orbit: 492 x 528 km, 97.5° (Epoch: 04 December)

Event Time Altitude Azimuth Distance (km) Brightness Sun altitude
Rises 05:11:58 0° 3° (N) 2,691 6.2 -11.9°
Reaches altitude 10° 05:14:26 10° 348° (NNW) 1,796 5.2 -11.5°
Maximum altitude 05:17:25 22° 297° (WNW) 1,214 4.0 -11.1°
Drops below altitude 10° 05:20:18 11° 248° (WSW) 1,750 4.9 -10.6°
Enters shadow 05:21:00 - 242° (WSW) 1,984 5.2 -10.5°
